N5PA Weather Reports


time (UTC)temp
F
wind
direction
speed
knots
gust
knots
rain 1hr
in
rain 24hr
in
rain mn
in
humidity
%
barometer
mb
20260504100507 50 0 0.0 0.0 0.00 0.00 0.00 45 1017.2
20260504082006 51 55 0.0 0.9 0.00 0.00 0.00 48 1017.6
20260504081505 51 0 0.0 0.0 0.00 0.00 0.00 48 1017.6
20260504081007 51 0 0.0 0.0 0.00 0.00 0.00 49 1017.6
20260504080507 51 0 0.0 0.0 0.00 0.00 0.00 48 1017.7
20260504050505 54 56 0.0 0.9 0.00 0.00 0.00 60 1018.6
20260504050006 54 56 0.0 0.9 0.00 0.00 0.00 60 1018.6
20260504045506 54 0 0.0 0.0 0.00 0.00 0.00 61 1018.6
20260504045007 54 0 0.0 0.0 0.00 0.00 0.00 62 1018.6
20260504044505 55 0 0.0 0.0 0.00 0.00 0.00 62 1018.7
20260504044006 55 0 0.0 0.0 0.00 0.00 0.00 63 1018.7
20260504043507 55 0 0.0 0.0 0.00 0.00 0.00 63 1018.8
20260504043006 55 55 0.0 0.9 0.00 0.00 0.00 64 1018.8
20260504042507 55 55 0.0 0.9 0.00 0.00 0.00 64 1018.9
20260504042005 55 55 0.0 1.7 0.00 0.00 0.00 66 1018.9
20260504041507 55 55 0.9 1.7 0.00 0.00 0.00 67 1018.9
20260504041006 55 55 0.0 0.9 0.00 0.00 0.00 68 1018.9
20260504040506 56 56 0.0 0.9 0.00 0.00 0.00 70 1018.9
20260504040005 56 55 0.0 1.7 0.00 0.00 0.00 70 1018.9
20260504035506 56 55 0.0 1.7 0.00 0.00 0.00 71 1018.8
20260504035006 56 55 0.0 0.9 0.00 0.00 0.00 72 1018.8
20260504034506 56 0 0.0 0.0 0.00 0.00 0.00 73 1018.9
20260504034005 56 0 0.0 0.0 0.00 0.00 0.00 73 1018.8
20260504033506 56 0 0.0 0.0 0.00 0.00 0.00 74 1018.9
20260504033005 56 0 0.0 0.0 0.00 0.00 0.00 74 1018.9
20260504032506 57 0 0.0 0.0 0.00 0.00 0.00 75 1018.9
20260504032005 57 0 0.0 0.0 0.00 0.00 0.00 75 1018.9
20260504031506 57 56 0.0 1.7 0.00 0.00 0.00 75 1018.9
20260504031005 57 56 0.0 1.7 0.00 0.00 0.00 75 1018.9
20260504030506 58 55 0.0 0.9 0.00 0.00 0.00 76 1018.8
20260504030005 58 56 0.0 0.9 0.00 0.00 0.00 76 1018.8
20260504025507 58 56 0.0 0.9 0.00 0.00 0.00 76 1018.8
20260504025007 58 55 0.0 1.7 0.00 0.00 0.00 76 1018.7
20260504024505 58 55 0.0 1.7 0.00 0.00 0.00 76 1018.7
20260504024005 58 56 0.0 1.7 0.00 0.00 0.00 76 1018.6
20260504023506 59 55 0.0 1.7 0.00 0.00 0.00 76 1018.6
20260504023006 59 55 0.9 1.7 0.00 0.00 0.00 76 1018.5
20260504022505 59 55 0.0 1.7 0.00 0.00 0.00 75 1018.5
20260504022006 59 56 0.0 0.9 0.00 0.00 0.00 75 1018.5
20260504021506 60 55 0.0 1.7 0.00 0.00 0.00 75 1018.5
20260504021006 60 55 0.9 1.7 0.00 0.00 0.00 75 1018.5
20260504020506 60 55 0.9 1.7 0.00 0.00 0.00 74 1018.4
20260504020006 60 55 0.0 1.7 0.00 0.00 0.00 74 1018.4
20260504015506 61 0 0.0 0.0 0.00 0.00 0.00 72 1018.3
20260504015006 61 0 0.0 0.0 0.00 0.00 0.00 71 1018.3
20260504014506 61 0 0.0 0.0 0.00 0.00 0.00 71 1018.2
20260504014006 62 55 0.0 0.9 0.00 0.00 0.00 70 1018.1
20260504013504 62 55 0.9 1.7 0.00 0.00 0.00 70 1018.0
20260504013006 62 55 0.9 1.7 0.00 0.00 0.00 69 1018.1
20260504012505 63 55 0.0 1.7 0.00 0.00 0.00 68 1018.0
20260504012006 64 55 0.0 1.7 0.00 0.00 0.00 68 1017.9
20260504011506 64 55 0.0 1.7 0.00 0.00 0.00 67 1017.9
20260504011007 65 56 0.0 0.9 0.00 0.00 0.00 65 1017.8
20260504010506 65 64 0.0 0.9 0.00 0.00 0.00 64 1017.9
20260504010006 66 67 0.0 0.9 0.00 0.00 0.00 62 1017.8
20260504005506 66 99 0.0 0.9 0.00 0.00 0.00 61 1017.7
20260504005006 67 115 0.0 0.9 0.00 0.00 0.00 60 1017.7
20260504004505 68 134 0.0 0.9 0.00 0.00 0.00 59 1017.6
20260504004006 68 161 0.0 0.9 0.00 0.00 0.00 57 1017.7
20260504003505 69 161 0.0 0.9 0.00 0.00 0.00 54 1017.7
20260504003005 70 161 0.0 1.7 0.00 0.00 0.00 52 1017.7
20260504002506 71 234 0.9 1.7 0.00 0.00 0.00 50 1017.6
20260504002006 72 257 0.9 1.7 0.00 0.00 0.00 48 1017.6
20260504001505 73 252 0.0 1.7 0.00 0.00 0.00 43 1017.5
20260504001005 73 249 0.9 1.7 0.00 0.00 0.00 43 1017.5
20260504000505 74 249 0.9 1.7 0.00 0.00 0.00 39 1017.5
20260504000006 75 248 0.0 1.7 0.00 0.00 0.00 38 1017.5
20260503235506 75 247 0.0 1.7 0.00 0.00 0.00 38 1017.5
20260503235005 76 246 0.0 1.7 0.00 0.00 0.00 36 1017.5
20260503234505 76 246 0.0 1.7 0.00 0.00 0.00 36 1017.5
20260503234006 75 246 0.9 2.6 0.00 0.00 0.00 39 1017.6
20260503233506 75 235 0.9 3.5 0.00 0.00 0.00 37 1017.7
20260503233005 76 218 1.7 3.5 0.00 0.00 0.00 34 1017.7
20260503232505 76 227 1.7 3.5 0.00 0.00 0.00 34 1017.8
20260503232005 76 251 1.7 3.5 0.00 0.00 0.00 33 1017.8
20260503231504 76 262 1.7 3.5 0.00 0.00 0.00 34 1017.8
20260503231005 76 260 0.9 3.5 0.00 0.00 0.00 33 1017.8
20260503230505 75 266 1.7 6.1 0.00 0.00 0.00 32 1017.9
20260503230004 75 271 3.5 6.1 0.00 0.00 0.00 32 1017.9
20260503225506 75 292 3.5 5.2 0.00 0.00 0.00 33 1017.8
20260503225006 76 304 2.6 6.1 0.00 0.00 0.00 32 1017.9
20260503224506 77 278 1.7 6.1 0.00 0.00 0.00 31 1017.8
20260503224004 77 259 1.7 3.5 0.00 0.00 0.00 32 1017.8
20260503223505 77 260 1.7 3.5 0.00 0.00 0.00 35 1017.8
20260503223005 77 260 0.9 4.3 0.00 0.00 0.00 32 1017.8
20260503222505 76 270 1.7 5.2 0.00 0.00 0.00 34 1017.9
20260503222005 76 264 2.6 5.2 0.00 0.00 0.00 33 1018.0
20260503221505 76 259 2.6 5.2 0.00 0.00 0.00 32 1018.1
20260503221006 76 254 2.6 5.2 0.00 0.00 0.00 32 1018.1
20260503220505 76 242 1.7 5.2 0.00 0.00 0.00 33 1018.1
20260503220005 76 262 2.6 8.7 0.00 0.00 0.00 33 1018.1
20260503215505 75 284 3.5 8.7 0.00 0.00 0.00 32 1018.2
20260503215005 76 304 3.5 7.0 0.00 0.00 0.00 33 1018.3
20260503214505 76 339 2.6 6.1 0.00 0.00 0.00 32 1018.3
20260503214005 76 359 1.7 6.1 0.00 0.00 0.00 32 1018.3
20260503213506 76 1 2.6 6.1 0.00 0.00 0.00 33 1018.4
20260503213005 76 345 2.6 7.0 0.00 0.00 0.00 35 1018.5
20260503212506 75 289 3.5 7.0 0.00 0.00 0.00 33 1018.5
20260503212005 76 271 3.5 7.8 0.00 0.00 0.00 34 1018.7
20260503211504 76 270 3.5 8.7 0.00 0.00 0.00 35 1018.7
20260503211004 75 288 3.5 8.7 0.00 0.00 0.00 35 1018.7
20260503210504 75 307 3.5 7.0 0.00 0.00 0.00 33 1018.8
20260503210006 76 310 3.5 7.0 0.00 0.00 0.00 32 1018.9
20260503205505 76 349 2.6 7.0 0.00 0.00 0.00 33 1019.0
20260503205005 76 21 1.7 6.1 0.00 0.00 0.00 32 1019.1
20260503204504 75 353 2.6 7.8 0.00 0.00 0.00 35 1019.2
20260503204005 75 323 2.6 7.8 0.00 0.00 0.00 32 1019.2
20260503203507 75 306 2.6 7.8 0.00 0.00 0.00 32 1019.4
20260503203006 75 299 2.6 6.1 0.00 0.00 0.00 35 1019.4
20260503202507 75 274 4.3 10.4 0.00 0.00 0.00 32 1019.5
20260503202007 74 264 4.3 10.4 0.00 0.00 0.00 32 1019.5
20260503201507 75 262 1.7 7.0 0.00 0.00 0.00 32 1019.6
20260503201006 76 208 1.7 4.3 0.00 0.00 0.00 34 1019.7
20260503200507 75 230 1.7 6.1 0.00 0.00 0.00 35 1019.8
20260503200007 75 257 2.6 6.1 0.00 0.00 0.00 35 1019.9
20260503195507 75 303 2.6 6.1 0.00 0.00 0.00 37 1020.0
20260503195007 74 312 3.5 7.0 0.00 0.00 0.00 35 1020.1
20260503194507 75 291 3.5 8.7 0.00 0.00 0.00 35 1020.2
20260503194007 74 286 3.5 8.7 0.00 0.00 0.00 35 1020.3
20260503193507 74 292 3.5 7.0 0.00 0.00 0.00 34 1020.3
20260503193006 74 341 2.6 7.0 0.00 0.00 0.00 36 1020.4
20260503192506 74 349 2.6 7.0 0.00 0.00 0.00 36 1020.5
20260503192007 74 270 3.5 9.6 0.00 0.00 0.00 37 1020.7
20260503191507 74 270 2.6 9.6 0.00 0.00 0.00 37 1020.7
20260503191006 74 261 1.7 3.5 0.00 0.00 0.00 36 1020.9
20260503190506 74 247 1.7 7.0 0.00 0.00 0.00 36 1020.9
20260503190006 73 250 2.6 7.0 0.00 0.00 0.00 39 1021.0
20260503185506 73 291 3.5 7.0 0.00 0.00 0.00 36 1021.2
20260503185006 73 291 3.5 7.0 0.00 0.00 0.00 38 1021.2
20260503184506 73 256 3.5 9.6 0.00 0.00 0.00 38 1021.3
20260503184008 73 272 4.3 9.6 0.00 0.00 0.00 36 1021.4
20260503183507 72 281 3.5 7.8 0.00 0.00 0.00 41 1021.4
20260503183007 72 260 2.6 5.2 0.00 0.00 0.00 41 1021.4
20260503182507 72 266 3.5 7.0 0.00 0.00 0.00 39 1021.4
20260503182006 71 289 3.5 7.8 0.00 0.00 0.00 37 1021.5
20260503181507 72 320 2.6 7.8 0.00 0.00 0.00 37 1021.6
20260503181006 72 286 2.6 6.1 0.00 0.00 0.00 39 1021.6
20260503180507 72 242 3.5 7.0 0.00 0.00 0.00 39 1021.6
20260503180006 72 238 3.5 7.0 0.00 0.00 0.00 40 1021.7
20260503175507 71 275 3.5 7.0 0.00 0.00 0.00 40 1021.8
20260503175007 72 307 2.6 7.0 0.00 0.00 0.00 39 1021.8
20260503174507 72 288 1.7 7.0 0.00 0.00 0.00 39 1022.0
20260503174007 72 334 2.6 7.0 0.00 0.00 0.00 38 1022.0
20260503173507 72 318 3.5 7.0 0.00 0.00 0.00 36 1022.1
20260503173006 72 295 3.5 7.0 0.00 0.00 0.00 37 1022.2
20260503172506 72 323 2.6 7.8 0.00 0.00 0.00 38 1022.3
20260503172006 72 321 2.6 7.8 0.00 0.00 0.00 36 1022.4
20260503171507 72 305 2.6 7.8 0.00 0.00 0.00 40 1022.4
20260503171006 71 289 3.5 10.4 0.00 0.00 0.00 38 1022.4
20260503170507 71 287 4.3 10.4 0.00 0.00 0.00 41 1022.5
20260503151007 68 277 1.7 2.6 0.00 0.00 0.00 50 1023.5
20260503150507 67 265 1.7 2.6 0.00 0.00 0.00 50 1023.5
20260503131005 55 15 0.0 1.7 0.00 0.01 0.00 74 1022.6
20260503130506 54 15 0.0 1.7 0.00 0.01 0.00 71 1022.6
20260503110506 46 88 0.9 4.3 0.00 0.01 0.00 47 1021.3